FALCON 9 R/B, 62853

Orbit data source: Space-Track

FALCON 9 R/B, 62853 is space debris in HEO originally from a launch on Thu, 30 Jan 2025 UTC launched from the Air Force Eastern Test Range (AFETR). Debris objects in space refer to the collection of defunct objects orbiting the Earth. Examples of debris include non-operational satellites, rocket bodies, and fragments generated from explosions, collisions, or faulty payload assembly.

Loading next visibility...
Identifier
62853, 2025-021B
Orbit
HEO
Country
Flag of USUS
Related business
Manufacturer
SpaceX
Mission
Spacecraft
Bus & Motor
F9ST2, Unknown motor
Mass
~4,000 kg wet, ~4,000 kg dry
Launch date (UTC)
2025-01-30 (8 months ago)
Launch vehicle
Unknown
Launch site
Air Force Eastern Test Range (AFETR)
Object type
Payload
Rocket body
Debris
Shape & HBR
Cyl, 7.8 m
Radar Cross Section
39.980 m², Large (>1 m²)

Expand to show TLE details & history
Last TLE update: 13 hours ago

TLE from 13 hours ago
0 FALCON 9 R/B
1 62853U 25021B   25258.33013749  .00001491  00000-0  47387-2 0  9992
2 62853  25.2423 306.3198 8306956 240.3252  15.8591  1.10843353  2536
Epoch: 2025-09-15T07:55Z
TLE epoch observation values (Epoch: 2025-09-15T07:55:23.879Z)
Latitude
-0.00006°
Longitude
-166.98828°
Altitude
14,362.094 km
Speed
5.322 km/s
True Right ascension
20h 25m 35s
True Declination
0° 00' 00"
Sunlit
Object was in daylight at epoch
Visualization orbit readout
Latitude
Unknown
Longitude
Unknown
Altitude
Unknown
Speed
Unknown
Apparent Right ascension
Unknown
Apparent Declination
Unknown
Sunlit
N/A
Visualization observer readout
Local Sidereal Time
13:52:24
Azimuth
Unknown
Elevation
Unknown
Doppler factor
Unknown
Orbital elements
Apogee altitude
65,831.8 km
Perigee altitude
299.904 km
Semi-major axis
39,443.989 km
Eccentricity
0.8307
Inclination
25.2423°
RAAN
306.3198°
Arg. of periapsis
240.3252°
True anomaly
119.10146°
Mean anomaly
15.8591°
Eccentric anomaly
54.70665°
Mean motion
0.27706 °/min
Orbital period
1,299.36 mins
BSTAR
0.0047387
Loading maneuver chart data...
Computing Atmospheric mass density...
Loading historical data...
Loading historical data...
Loading historical data...
Loading historical data...
Loading historical data...
Loading historical data...
Loading historical data...
Other satellites on launch #21 in the year 2025 (2025-01-30 UTC)

Documentation

Showing up to 5 results
|